Wind_Speed
41 42 43 44 43 42 41 40 38 36 35 36 36 37 39 42 45 49 52 56 60 63 67 69 71 71 70 66 60 54 47 44 43 42 38 34 31 30 29 28 27 26 26 26
43 44 45 46 46 45 43 39 36 35 36 37 38 39 41 45 48 52 55 59 62 65 66 67 67 65 60 52 47 44 42 40 37 34 29 27 25 23 24 24 25 24 23 24
43 44 45 47 45 43 39 37 35 35 36 36 37 40 44 47 50 54 57 60 62 63 64 63 60 54 46 42 40 40 37 32 27 23 21 20 19 21 23 24 24 22 21 20
43 43 44 44 41 39 37 36 35 35 35 36 39 43 46 49 52 55 58 59 60 59 57 54 49 44 41 40 36 31 24 18 15 14 15 17 20 22 22 20 17 17 16 16
44 44 45 44 40 37 36 34 33 33 35 39 42 45 48 51 53 55 57 56 54 51 47 44 42 39 36 29 21 13 10 9 9 12 15 17 19 18 18 19 19 19 18 18
45 44 43 42 39 36 34 33 33 35 38 41 43 45 47 50 53 54 51 48 45 42 39 38 33 26 18 11 9 9 9 10 11 13 15 17 17 19 20 22 22 22 22 21
43 42 40 36 31 28 29 31 33 36 38 41 43 45 47 50 50 47 43 40 37 35 31 24 14 9 9 10 11 11 11 12 13 15 17 18 21 23 25 25 25 25 25 24
39 36 30 26 25 26 29 31 34 36 39 41 43 44 46 45 42 38 35 32 29 24 14 6 8 11 12 12 13 13 14 14 15 18 21 24 26 28 28 28 28 27 27 26
30 28 26 25 26 27 30 32 34 36 39 41 42 43 41 37 33 30 28 23 16 6 4 10 13 14 15 16 17 17 17 18 20 22 25 26 28 29 30 31 31 31 30 29
26 24 24 25 27 29 30 32 34 37 39 40 39 37 33 29 25 22 18 10 1 6 12 15 18 20 22 22 21 21 21 22 23 25 27 28 29 30 31 32 32 31 30 29
23 23 25 27 29 30 31 33 35 37 37 35 33 29 25 21 17 13 5 3 8 12 16 21 25 26 25 24 23 23 24 24 25 27 28 30 31 32 33 33 32 31 28 26
23 25 28 29 30 31 32 34 34 33 31 29 25 20 16 13 9 4 6 10 15 21 26 27 26 26 25 25 24 24 24 26 28 29 31 32 34 35 35 35 34 31 28 25
26 28 29 30 31 32 32 31 29 27 25 21 16 12 9 5 6 9 12 19 26 28 27 26 26 26 25 24 23 24 27 30 31 33 34 35 37 38 37 36 34 30 26 22
29 29 29 30 31 30 28 25 23 22 18 13 10 6 7 10 13 17 23 27 28 26 25 25 25 24 23 22 24 26 29 32 35 37 39 41 43 43 41 37 33 29 25 22
27 27 28 29 28 25 22 20 19 16 12 9 8 12 16 18 21 25 28 27 25 24 24 24 23 22 21 22 24 26 29 33 36 39 42 45 47 46 43 38 34 30 27 26
25 25 24 22 20 19 17 16 14 12 11 11 15 21 23 24 26 28 26 25 24 23 23 23 21 21 21 22 22 25 29 33 36 40 43 46 48 48 45 41 38 35 32 30
20 17 15 15 15 15 14 13 13 13 14 17 24 27 28 28 28 27 25 24 22 22 22 21 20 20 20 20 21 25 30 33 37 40 42 45 47 48 47 44 41 39 37 35
13 11 11 12 13 12 11 12 14 16 19 25 30 32 31 30 28 27 25 23 21 21 21 20 19 18 18 18 21 25 29 33 36 38 41 43 46 48 49 47 44 41 40 40
12 11 11 11 12 12 13 14 17 20 26 31 34 34 32 30 28 26 24 22 21 21 20 18 17 16 17 18 21 24 28 32 35 37 39 42 45 47 49 50 48 44 42 42
14 14 13 12 14 14 15 18 22 26 32 35 36 35 33 31 29 26 23 22 21 20 18 16 15 15 17 18 21 24 28 31 34 36 38 40 43 46 49 50 50 48 45 44
15 16 14 14 15 16 18 23 27 32 37 38 38 37 35 32 29 26 23 22 21 19 17 14 14 16 16 18 22 25 29 31 33 35 37 39 42 44 46 49 50 50 49 47
15 15 14 15 17 19 24 28 33 37 39 40 40 39 36 33 29 26 24 23 21 18 16 15 15 16 16 19 22 25 29 31 34 36 38 40 42 43 45 47 48 50 50 50
12 12 14 17 20 24 29 33 38 41 42 42 42 39 36 32 29 26 24 23 21 18 16 16 16 16 16 19 22 25 28 30 32 35 38 40 42 43 45 46 47 49 50 51
11 12 16 21 26 30 33 38 41 43 46 46 43 39 35 32 28 26 24 22 20 18 17 16 16 16 17 19 21 23 26 28 30 33 36 39 42 44 45 45 47 49 49 50
13 15 21 27 31 35 38 42 44 47 49 46 42 37 34 30 28 25 23 21 19 18 16 16 15 16 17 18 20 22 25 27 29 32 34 37 39 42 44 45 45 47 48 48
16 20 26 32 36 40 43 45 49 51 49 44 38 34 32 29 26 24 22 20 18 16 15 14 13 14 15 17 19 21 24 27 29 31 32 35 37 39 41 42 43 44 46 47
20 26 32 37 42 46 46 48 50 49 46 41 35 32 30 28 25 23 21 19 17 14 12 11 10 12 13 15 18 21 23 26 28 29 31 33 36 38 39 39 40 41 42 44
Wind_Direction
256 258 262 265 268 272 277 280 281 282 283 285 286 286 286 286 286 286 288 290 292 295 296 297 298 299 300 301 302 303 305 307 310 312 312 311 311 311 312 312 312 312 311 309
253 256 260 265 269 274 278 280 278 278 279 280 281 282 283 285 286 289 291 294 295 297 298 299 301 301 301 302 304 305 307 309 311 313 314 315 317 319 319 319 317 315 313 311
255 258 262 266 271 276 278 278 276 276 277 278 280 282 283 286 289 292 295 297 299 301 302 302 302 303 305 306 306 307 308 309 312 317 320 324 326 326 325 322 320 319 318 319
257 260 263 268 271 273 275 275 276 277 277 279 282 285 288 291 295 299 301 303 304 303 303 304 304 306 308 309 310 311 312 317 323 328 331 332 332 332 333 338 341 342 342 341
258 260 263 266 269 271 273 274 275 276 279 283 288 292 295 299 302 304 306 306 305 304 304 305 306 309 311 315 321 330 344 353 353 347 342 341 343 351 359 1 0 358 354 349
258 258 259 262 264 267 268 271 274 280 286 291 295 297 300 302 304 306 307 307 306 306 306 307 310 316 328 353 24 38 36 24 7 356 352 352 356 356 354 353 351 348 345 342
256 256 259 261 261 263 267 273 280 285 289 293 296 299 301 304 307 307 307 307 307 307 307 312 328 9 50 60 57 48 36 21 13 7 2 356 350 346 343 342 340 338 336 333
255 254 255 255 257 262 271 278 282 287 291 295 298 302 304 305 306 306 306 307 307 308 316 359 65 75 72 65 56 46 38 31 21 9 359 352 347 345 344 343 342 340 338 336
247 246 248 254 261 268 275 281 286 290 293 296 300 303 304 303 303 304 305 305 307 321 77 97 94 86 78 71 64 57 47 32 17 4 356 352 350 348 346 344 343 342 340 338
239 240 247 257 266 272 277 283 286 290 294 299 302 303 301 300 301 301 300 298 330 107 111 106 99 91 85 78 68 54 39 24 11 2 356 352 351 351 349 348 347 345 344 343
239 247 258 264 269 274 279 284 289 295 299 303 304 301 298 298 297 290 269 137 114 114 111 105 99 92 82 70 56 42 29 18 9 3 1 0 360 358 355 353 351 349 348 348
251 259 264 268 271 276 281 288 294 298 301 302 300 295 293 290 277 219 142 119 115 113 108 102 94 84 71 59 47 36 26 20 17 14 10 7 4 1 357 354 352 352 351 352
258 262 267 270 275 280 286 290 294 295 295 293 287 282 275 243 181 143 126 124 118 110 103 96 86 75 65 55 44 36 33 30 26 22 17 14 9 4 360 357 358 1 0 360
264 269 271 275 278 282 286 288 288 285 281 273 262 237 186 159 142 132 130 124 115 107 100 90 81 72 62 53 45 41 38 35 31 26 22 18 14 10 7 6 8 10 9 7
268 271 273 275 277 278 280 281 278 269 254 236 200 166 153 144 137 134 129 121 113 105 97 88 80 71 60 52 46 42 39 36 32 27 24 20 18 17 17 18 18 17 16 13
272 273 273 273 273 272 271 268 258 239 219 189 162 152 147 142 139 135 127 120 113 104 96 89 80 69 60 52 46 43 40 36 33 29 26 23 22 23 24 24 24 23 21 17
269 268 269 270 268 263 256 243 224 209 188 166 154 150 147 144 141 134 127 120 113 105 98 89 79 68 59 51 44 42 39 36 33 30 27 25 25 26 26 26 25 25 23 20
259 258 263 266 261 248 230 210 200 188 170 158 152 150 149 146 141 134 128 121 114 107 100 89 78 67 57 47 42 41 39 36 33 30 28 26 26 27 27 27 25 24 24 23
253 253 257 252 237 222 206 196 189 175 162 156 153 153 153 149 143 136 129 123 116 110 100 89 77 65 55 46 43 42 40 36 33 30 28 28 27 27 28 29 29 27 27 26
257 252 252 241 219 205 193 186 177 166 160 157 157 157 156 151 145 137 131 125 119 110 99 89 76 63 54 47 44 43 40 37 34 31 29 28 28 28 28 29 30 30 29 28
246 244 244 229 208 194 184 176 168 163 160 158 158 158 156 151 144 137 133 128 119 110 101 89 75 65 56 50 47 45 42 38 35 32 30 29 29 28 28 28 29 30 30 30
234 234 229 211 195 183 175 169 164 161 159 158 157 156 154 149 143 138 135 128 119 111 102 89 76 67 59 54 52 49 44 39 36 33 31 30 29 29 28 28 29 30 31 31
220 217 203 189 179 173 168 164 161 159 158 156 154 153 151 147 143 140 135 127 119 112 101 89 79 70 62 57 53 48 43 38 34 32 30 30 29 28 28 28 29 30 31 31
211 197 183 175 170 167 164 161 160 159 156 153 153 151 149 146 143 141 135 128 121 113 102 91 81 72 64 57 50 44 39 34 30 28 28 28 28 27 26 27 28 29 30 32
201 187 176 170 167 164 162 159 158 156 154 153 151 150 148 146 144 141 136 130 123 115 105 93 82 71 62 54 46 40 35 30 26 24 24 23 24 24 24 25 27 28 30 31
189 180 173 169 166 162 158 156 154 154 153 152 151 150 148 147 145 142 139 135 129 121 109 96 82 69 59 51 42 37 32 28 25 22 21 21 21 21 20 22 26 28 29 31
182 176 171 168 164 159 155 154 154 154 154 154 153 151 150 148 147 146 146 144 137 129 117 101 84 68 56 48 40 34 30 27 23 21 19 19 19 19 18 21 25 28 28 30
Height
5746 5748 5749 5749 5749 5750 5750 5749 5749 5747 5745 5744 5743 5742 5739 5736 5732 5728 5723 5718 5712 5706 5699 5691 5682 5673 5664 5656 5648 5641 5635 5629 5623 5617 5611 5604 5599 5593 5588 5582 5577 5572 5567 5563
5736 5737 5738 5739 5740 5741 5742 5742 5741 5739 5738 5737 5735 5733 5729 5725 5721 5717 5712 5706 5699 5691 5683 5674 5666 5657 5649 5642 5636 5630 5625 5620 5614 5609 5604 5598 5593 5588 5583 5578 5572 5568 5563 5558
5726 5727 5728 5730 5732 5733 5733 5733 5732 5731 5731 5728 5726 5723 5719 5715 5711 5706 5700 5693 5684 5675 5666 5657 5649 5642 5635 5630 5625 5620 5615 5611 5607 5603 5599 5595 5590 5585 5579 5574 5569 5563 5559 5554
5716 5718 5720 5723 5723 5724 5724 5724 5723 5722 5721 5719 5717 5713 5708 5704 5699 5693 5686 5678 5669 5660 5652 5644 5637 5631 5625 5619 5614 5610 5607 5605 5603 5600 5596 5592 5587 5582 5576 5571 5565 5560 5556 5551
5707 5709 5710 5712 5714 5715 5715 5715 5714 5713 5711 5709 5706 5702 5696 5691 5685 5679 5671 5664 5656 5648 5642 5635 5628 5622 5616 5611 5608 5605 5604 5603 5601 5598 5595 5591 5586 5581 5576 5570 5565 5560 5555 5550
5699 5700 5702 5705 5706 5706 5707 5706 5705 5704 5702 5699 5695 5692 5687 5679 5673 5666 5659 5651 5645 5639 5633 5627 5622 5616 5612 5609 5607 5606 5605 5604 5601 5598 5595 5591 5586 5581 5576 5570 5565 5560 5555 5550
5689 5690 5692 5696 5697 5698 5700 5699 5697 5695 5692 5689 5685 5682 5676 5669 5662 5655 5649 5643 5638 5632 5628 5623 5618 5615 5613 5611 5610 5609 5607 5605 5603 5600 5596 5591 5586 5581 5575 5569 5564 5558 5553 5547
5680 5683 5687 5688 5689 5691 5691 5690 5687 5685 5682 5678 5674 5670 5665 5659 5653 5647 5642 5638 5633 5628 5624 5621 5618 5617 5615 5614 5613 5612 5610 5608 5605 5601 5597 5591 5585 5579 5573 5566 5560 5554 5549 5543
5673 5677 5678 5680 5681 5682 5681 5680 5678 5675 5672 5668 5665 5661 5655 5650 5646 5642 5638 5634 5630 5627 5624 5622 5620 5619 5618 5617 5616 5615 5613 5611 5607 5603 5597 5591 5584 5577 5570 5563 5556 5550 5544 5538
5665 5668 5670 5672 5673 5673 5672 5670 5668 5665 5663 5659 5656 5651 5647 5643 5640 5638 5635 5632 5629 5627 5626 5625 5624 5623 5622 5622 5621 5620 5617 5614 5609 5604 5597 5591 5584 5576 5568 5560 5553 5546 5539 5533
5658 5662 5664 5665 5665 5664 5663 5660 5658 5656 5653 5649 5646 5643 5641 5638 5637 5635 5634 5632 5631 5630 5630 5629 5629 5628 5628 5627 5626 5624 5621 5617 5612 5605 5598 5590 5582 5574 5566 5558 5550 5543 5536 5530
5654 5656 5656 5656 5655 5655 5653 5651 5649 5647 5644 5641 5639 5638 5637 5636 5635 5635 5635 5635 5634 5634 5634 5634 5634 5634 5633 5632 5631 5628 5625 5620 5613 5606 5599 5591 5583 5574 5565 5556 5548 5540 5533 5528
5645 5646 5646 5646 5646 5645 5644 5642 5640 5639 5637 5636 5636 5636 5635 5635 5636 5637 5638 5638 5638 5639 5639 5639 5639 5638 5638 5637 5635 5632 5627 5621 5615 5608 5601 5593 5584 5575 5565 5555 5547 5539 5532 5527
5636 5637 5637 5637 5636 5635 5634 5633 5633 5633 5632 5633 5634 5634 5635 5636 5638 5639 5641 5642 5643 5644 5644 5644 5644 5644 5643 5641 5639 5635 5630 5624 5618 5611 5603 5594 5585 5574 5564 5554 5546 5539 5533 5527
5627 5628 5628 5627 5626 5625 5625 5626 5627 5628 5629 5630 5632 5633 5636 5638 5641 5643 5645 5646 5647 5648 5649 5649 5649 5648 5647 5645 5642 5638 5633 5627 5621 5613 5605 5597 5587 5576 5566 5556 5548 5541 5535 5529
5618 5618 5618 5618 5617 5618 5619 5621 5623 5624 5626 5628 5631 5634 5638 5641 5644 5647 5649 5651 5652 5653 5653 5653 5653 5653 5651 5649 5647 5642 5637 5631 5625 5617 5609 5601 5591 5581 5570 5561 5553 5545 5539 5532
5609 5609 5610 5610 5611 5612 5614 5617 5619 5621 5624 5627 5631 5636 5640 5644 5648 5651 5653 5655 5656 5657 5658 5658 5658 5657 5655 5653 5650 5646 5641 5635 5628 5621 5613 5605 5596 5586 5576 5567 5558 5550 5543 5535
5601 5603 5604 5605 5606 5608 5611 5613 5616 5619 5622 5627 5632 5637 5643 5647 5652 5655 5657 5659 5661 5662 5662 5663 5662 5661 5660 5657 5654 5649 5644 5638 5632 5626 5618 5611 5602 5592 5582 5573 5564 5555 5547 5539
5596 5598 5600 5601 5603 5605 5608 5611 5614 5618 5622 5628 5634 5640 5645 5651 5655 5658 5661 5663 5665 5666 5667 5667 5667 5666 5664 5661 5658 5653 5648 5642 5636 5630 5623 5616 5607 5598 5589 5580 5570 5560 5552 5544
5593 5594 5596 5597 5600 5603 5606 5609 5613 5617 5623 5629 5636 5642 5648 5653 5658 5661 5664 5667 5669 5670 5670 5671 5671 5669 5667 5665 5661 5656 5651 5646 5640 5634 5628 5621 5613 5604 5596 5586 5577 5567 5558 5549
5589 5590 5591 5593 5596 5600 5603 5607 5612 5618 5624 5631 5638 5645 5651 5656 5661 5665 5668 5671 5672 5673 5674 5675 5674 5672 5671 5668 5664 5660 5656 5651 5645 5639 5633 5626 5618 5610 5602 5593 5584 5575 5565 5556
5584 5585 5587 5589 5593 5597 5602 5607 5612 5619 5626 5633 5641 5648 5654 5659 5664 5668 5671 5673 5675 5677 5678 5678 5677 5676 5674 5671 5668 5664 5660 5656 5651 5645 5638 5631 5624 5616 5608 5600 5592 5582 5573 5563
5580 5581 5583 5586 5591 5596 5601 5607 5614 5621 5629 5637 5644 5651 5657 5662 5667 5671 5674 5676 5678 5681 5681 5681 5680 5679 5678 5675 5672 5669 5665 5660 5656 5650 5644 5637 5630 5623 5615 5607 5599 5590 5581 5572
5577 5578 5581 5585 5590 5596 5602 5609 5617 5624 5632 5640 5648 5654 5660 5666 5670 5674 5677 5680 5682 5684 5684 5684 5684 5683 5681 5679 5676 5673 5669 5665 5661 5655 5649 5643 5636 5629 5621 5614 5606 5598 5589 5581
5575 5577 5580 5585 5591 5598 5605 5612 5619 5628 5636 5644 5652 5658 5664 5669 5673 5677 5680 5683 5685 5687 5687 5688 5688 5687 5685 5683 5680 5677 5673 5670 5665 5660 5654 5648 5642 5635 5628 5621 5613 5605 5598 5590
5573 5576 5581 5586 5593 5600 5608 5616 5624 5632 5641 5649 5656 5662 5667 5672 5676 5680 5683 5686 5688 5690 5691 5691 5691 5690 5689 5687 5684 5681 5677 5674 5670 5665 5659 5654 5647 5641 5634 5627 5620 5612 5605 5598
5573 5577 5582 5588 5596 5604 5612 5620 5629 5637 5645 5653 5659 5665 5670 5675 5679 5683 5686 5689 5691 5692 5693 5694 5694 5693 5692 5690 5688 5685 5681 5677 5673 5669 5664 5658 5652 5646 5640 5633 5626 5619 5612 5606